• In United Kingdom
  • List of Countries
  • For 7 days
  • Water Temperature
  • Satellite Maps
  • Weather Map
  • Weather Widgets
  • user-avatar
    Login

    Hourly Weather Ghanzi

    Today, 18 February, Sunday

    Time Temperature Precipitation Wind Pressure Humidity
    00:00 +12°C° 0 mm 4 mps 718 mmHg 37%
    01:00 +11°C° 0 mm 4 mps 718 mmHg 39%
    02:00 +11°C° 0 mm 3 mps 718 mmHg 41%
    03:00 +10°C° 0 mm 3 mps 718 mmHg 43%
    04:00 +10°C° 0 mm 3 mps 718 mmHg 45%
    05:00 +10°C° 0 mm 3 mps 718 mmHg 45%
    06:00 +10°C° 0 mm 3 mps 718 mmHg 45%
    07:00 +10°C° 0 mm 3 mps 718 mmHg 45%
    08:00 +13°C° 0 mm 3 mps 718 mmHg 38%
    09:00 +16°C° 0 mm 3 mps 719 mmHg 31%
    10:00 +19°C° 0 mm 4 mps 719 mmHg 24%
    11:00 +20°C° 0 mm 3 mps 718 mmHg 20%
    12:00 +22°C° 0 mm 3 mps 717 mmHg 17%
    13:00 +25°C° 0 mm 2 mps 717 mmHg 13%
    14:00 +25°C° 0 mm 2 mps 716 mmHg 12%
    15:00 +25°C° 0 mm 2 mps 716 mmHg 12%
    16:00 +26°C° 0 mm 2 mps 715 mmHg 11%
    17:00 +24°C° 0 mm 2 mps 715 mmHg 12%
    18:00 +21°C° 0 mm 3 mps 715 mmHg 13%
    19:00 +20°C° 0 mm 3 mps 715 mmHg 15%
    20:00 +19°C° 0 mm 3 mps 715 mmHg 16%
    21:00 +18°C° 0 mm 3 mps 715 mmHg 17%
    22:00 +18°C° 0 mm 3 mps 715 mmHg 18%
    23:00 +17°C° 0 mm 3 mps 715 mmHg 19%

    Tomorrow, 19 February, Monday

    Time Temperature Precipitation Wind Pressure Humidity
    00:00 +17°C° 0 mm 3 mps 715 mmHg 21%
    01:00 +16°C° 0 mm 2 mps 714 mmHg 22%
    02:00 +16°C° 0 mm 2 mps 714 mmHg 23%
    03:00 +15°C° 0 mm 2 mps 714 mmHg 24%
    04:00 +15°C° 0 mm 2 mps 714 mmHg 26%
    05:00 +15°C° 0 mm 2 mps 714 mmHg 25%
    06:00 +15°C° 0 mm 2 mps 714 mmHg 24%
    07:00 +16°C° 0 mm 2 mps 715 mmHg 24%
    08:00 +18°C° 0 mm 3 mps 715 mmHg 21%
    09:00 +20°C° 0 mm 3 mps 716 mmHg 18%
    10:00 +23°C° 0 mm 4 mps 716 mmHg 15%
    11:00 +25°C° 0 mm 3 mps 715 mmHg 13%
    12:00 +27°C° 0 mm 2 mps 714 mmHg 11%
    13:00 +28°C° 0 mm 2 mps 714 mmHg 10%
    14:00 +29°C° 0 mm 2 mps 713 mmHg 10%
    15:00 +29°C° 0 mm 1 mps 713 mmHg 9%
    16:00 +30°C° 0 mm 1 mps 712 mmHg 9%
    17:00 +28°C° 0 mm 2 mps 713 mmHg 10%
    18:00 +26°C° 0 mm 2 mps 713 mmHg 11%
    19:00 +24°C° 0 mm 3 mps 713 mmHg 13%
    20:00 +22°C° 0 mm 3 mps 713 mmHg 13%
    21:00 +21°C° 0 mm 3 mps 713 mmHg 14%
    22:00 +21°C° 0 mm 3 mps 714 mmHg 14%
    23:00 +20°C° 0 mm 3 mps 713 mmHg 15%

    Day after tomorrow, 20 February, Tuesday

    Time Temperature Precipitation Wind Pressure Humidity
    00:00 +19°C° 0 mm 3 mps 713 mmHg 15%
    01:00 +19°C° 0 mm 3 mps 713 mmHg 16%
    02:00 +18°C° 0 mm 2 mps 712 mmHg 16%
    03:00 +17°C° 0 mm 2 mps 712 mmHg 17%
    04:00 +16°C° 0 mm 2 mps 712 mmHg 18%
    05:00 +17°C° 0 mm 2 mps 712 mmHg 18%
    06:00 +17°C° 0 mm 2 mps 713 mmHg 17%
    07:00 +19°C° 0 mm 1 mps 713 mmHg 17%
    08:00 +20°C° 0 mm 2 mps 714 mmHg 15%
    09:00 +24°C° 0 mm 2 mps 714 mmHg 13%
    10:00 +26°C° 0 mm 2 mps 714 mmHg 11%
    11:00 +28°C° 0 mm 2 mps 714 mmHg 10%
    12:00 +29°C° 0 mm 2 mps 713 mmHg 9%
    13:00 +30°C° 0 mm 2 mps 712 mmHg 8%
    14:00 +31°C° 0 mm 2 mps 712 mmHg 8%
    15:00 +31°C° 0 mm 1 mps 711 mmHg 8%
    16:00 +31°C° 0 mm 1 mps 711 mmHg 8%
    17:00 +29°C° 0 mm 2 mps 711 mmHg 9%
    18:00 +27°C° 0 mm 2 mps 711 mmHg 11%
    19:00 +25°C° 0 mm 3 mps 711 mmHg 12%
    20:00 +25°C° 0 mm 3 mps 711 mmHg 13%
    21:00 +24°C° 0 mm 3 mps 711 mmHg 13%
    22:00 +22°C° 0 mm 3 mps 711 mmHg 14%
    23:00 +22°C° 0 mm 3 mps 711 mmHg 14%

    21 February, Wednesday

    Time Temperature Precipitation Wind Pressure Humidity
    00:00 +22°C° 0 mm 3 mps 710 mmHg 14%
    01:00 +21°C° 0 mm 3 mps 710 mmHg 14%
    02:00 +21°C° 0 mm 4 mps 710 mmHg 14%
    03:00 +20°C° 0 mm 4 mps 709 mmHg 15%
    04:00 +20°C° 0 mm 4 mps 709 mmHg 15%
    05:00 +20°C° 0 mm 4 mps 709 mmHg 15%
    06:00 +20°C° 0 mm 4 mps 710 mmHg 16%
    07:00 +20°C° 0 mm 4 mps 710 mmHg 17%
    08:00 +23°C° 0 mm 5 mps 710 mmHg 15%
    09:00 +27°C° 0 mm 7 mps 710 mmHg 13%
    10:00 +31°C° 0 mm 8 mps 710 mmHg 11%
    11:00 +33°C° 0 mm 8 mps 710 mmHg 10%
    12:00 +35°C° 0 mm 8 mps 709 mmHg 9%
    13:00 +38°C° 0 mm 8 mps 708 mmHg 8%
    14:00 +38°C° 0 mm 8 mps 707 mmHg 8%
    15:00 +38°C° 0 mm 8 mps 707 mmHg 8%
    16:00 +38°C° 0 mm 8 mps 707 mmHg 8%
    17:00 +35°C° 0 mm 7 mps 707 mmHg 9%
    18:00 +33°C° 0 mm 7 mps 707 mmHg 10%
    19:00 +30°C° 0 mm 6 mps 707 mmHg 12%
    20:00 +29°C° 0 mm 6 mps 708 mmHg 15%
    21:00 +28°C° 0 mm 7 mps 708 mmHg 18%
    22:00 +27°C° 0 mm 7 mps 709 mmHg 21%
    23:00 +26°C° 0 mm 6 mps 709 mmHg 24%

    22 February, Thursday

    Time Temperature Precipitation Wind Pressure Humidity
    00:00 +23°C° 0 mm 5 mps 709 mmHg 27%
    01:00 +22°C° 0 mm 5 mps 709 mmHg 30%
    02:00 +22°C° 0 mm 5 mps 709 mmHg 30%
    03:00 +21°C° 0 mm 5 mps 709 mmHg 31%
    04:00 +20°C° 0 mm 5 mps 709 mmHg 31%
    05:00 +20°C° 0 mm 5 mps 710 mmHg 31%
    06:00 +20°C° 0 mm 5 mps 710 mmHg 31%
    07:00 +20°C° 0 mm 5 mps 711 mmHg 31%
    08:00 +22°C° 0 mm 5 mps 711 mmHg 27%
    09:00 +25°C° 0 mm 5 mps 711 mmHg 23%
    10:00 +27°C° 0 mm 6 mps 712 mmHg 19%
    11:00 +28°C° 0 mm 5 mps 711 mmHg 17%
    12:00 +29°C° 0 mm 4 mps 711 mmHg 16%
    13:00 +30°C° 0 mm 3 mps 710 mmHg 15%
    14:00 +30°C° 0 mm 3 mps 710 mmHg 14%
    15:00 +31°C° 0 mm 3 mps 710 mmHg 14%
    16:00 +31°C° 0 mm 3 mps 710 mmHg 14%
    17:00 +29°C° 0 mm 3 mps 710 mmHg 16%
    18:00 +28°C° 0 mm 4 mps 711 mmHg 18%
    19:00 +26°C° 0 mm 4 mps 711 mmHg 19%
    20:00 +25°C° 0 mm 4 mps 711 mmHg 21%
    21:00 +25°C° 0 mm 4 mps 711 mmHg 22%
    22:00 +23°C° 0 mm 4 mps 712 mmHg 24%
    23:00 +23°C° 0 mm 4 mps 711 mmHg 25%

    23 February, Friday

    Time Temperature Precipitation Wind Pressure Humidity
    00:00 +22°C° 0 mm 3 mps 711 mmHg 26%
    01:00 +22°C° 0 mm 3 mps 711 mmHg 27%
    02:00 +21°C° 0 mm 3 mps 711 mmHg 28%
    03:00 +21°C° 0 mm 3 mps 711 mmHg 29%
    04:00 +20°C° 0 mm 4 mps 711 mmHg 31%
    05:00 +20°C° 0 mm 4 mps 712 mmHg 31%
    06:00 +20°C° 0 mm 4 mps 713 mmHg 31%
    07:00 +20°C° 0 mm 4 mps 713 mmHg 31%
    08:00 +22°C° 0 mm 4 mps 714 mmHg 27%
    09:00 +26°C° 0 mm 5 mps 714 mmHg 23%
    10:00 +28°C° 0 mm 5 mps 715 mmHg 18%
    11:00 +29°C° 0 mm 5 mps 714 mmHg 17%
    12:00 +32°C° 0 mm 5 mps 714 mmHg 16%
    13:00 +33°C° 0 mm 5 mps 713 mmHg 14%
    14:00 +33°C° 0 mm 5 mps 713 mmHg 14%
    15:00 +34°C° 0 mm 5 mps 713 mmHg 14%
    16:00 +34°C° 0 mm 5 mps 712 mmHg 14%
    17:00 +32°C° 0 mm 5 mps 713 mmHg 15%
    18:00 +29°C° 0 mm 5 mps 713 mmHg 17%
    19:00 +27°C° 0 mm 5 mps 713 mmHg 19%
    20:00 +26°C° 0 mm 6 mps 713 mmHg 20%
    21:00 +24°C° 0 mm 6 mps 713 mmHg 21%
    22:00 +24°C° 0 mm 6 mps 714 mmHg 22%
    23:00 +23°C° 0 mm 6 mps 714 mmHg 23%
    Show more